Погода в Мезени

Хотите узнать прогноз погоды в Мезени? Тогда Вам сюда: Погода в Мезени

Поиск расширенной информации на нашем сайте:

Полезная информация:

Новости сайта



02.01.2020
Опубликован Долгосрочный прогноз погоды по городам России и ближнего зарубежья на январь 2020 года.
Карты: Прогноз на январь и февраль 2020 года, Сравнение прогнозируемой аномалии приземной температуры воздуха на январь 2020 года по разным моделям.




Погода в Мезени - сегодня

Время (UTC), дата Ветер
(°,м/с) 
Видим.   Явления Облачность Т
(°С)
Тd
(°С)
f(%) Тe
(°С)
Pmin
(гПа)
dP
(гПа)
Po
(мм)
O2
(г/м3)
Тmin Tmax R s Состояние
почвы
03 29.11.20 180 (Ю) 20000 м    3/0 верхняя 
[Ci fib]
-11.2 -12.5 90 -17  1037.2  -0.9  776  327  -11.2    0.0  равномерный
сухой снег
100% 
06 29.11.20 180 (Ю) 20000 м    6/0 средняя, верхняя 
[Ac trans|Ci fib]
-10.6 -11.9 90 -15  1037.1  -0.1  776  326           
09 29.11.20 190 (Ю) 5{10}  20000 м    8/0 верхняя 
[Ci fib]
-9.8 -12.4 81 -14  1037.1  776  326           
12 29.11.20 190 (Ю) 8-11{11}  20000 м  позёмок  9/0 средняя, верхняя 
[Ac trans|Ci fib]
-8.9 -10.9 85 -15  1035.8  -1.3  775  324           
15 29.11.20 190 (Ю) 6{11}  20000 м    10/10 240 м 
[St]
-9.7 -11.4 87 -15  1036  -0.2  775  325    -8.9       
18 29.11.20 200 (Ю) 5{10}  50000 м    10/10 120 м 
[St]
-7.7 -9.1 90 -12  1035.4  -0.6  775  322           
21 29.11.20 200 (Ю) 6-10  50000 м    10/10 210 м 
[St]
-6.6 -8.2 88 -11  1035.1  -0.3  774  321           
00 30.11.20 190 (Ю) 50000 м    10/10 210 м 
[St]
-5.8 -7.3 89 -10  1034  -1.1  774  319           
03 30.11.20 200 (Ю) 20000 м    10/10 210 м 
[St]
-4.2 -5.4 91 -8  1032.5  -1.5  773  317  -9.8      равномерный
сухой снег
100% 
06 30.11.20 200 (Ю) 5{10}  50000 м  в посл. час снег  10/10 210 м 
[St]
-3.5 -4.9 90 -7  1032.2  -0.3  772  316           
09 30.11.20 190 (Ю) 20000 м    10/10 180 м 
[St]
-3.5 -4.6 92 -7  1031.1  -1.1  771  315           
12 30.11.20 190 (Ю) 6{10}  10 км  снежные зёрна  10/10 240 м 
[St]
-2.8 -4 91 -7  1030.4  -0.7  771  314           
15 30.11.20 190 (Ю) 6-10{11}  20000 м  позёмок{снег}  10/10 210 м 
[St]
-2.8 -4.1 91 -7  1029.3  -1.1  770  314    -2.8  0.0     
18 30.11.20 190 (Ю) 6{11}  50000 м    10/10 240 м 
[St]
-2.2 -3.4 91 -6  1027.2  -2  769  313           
21 30.11.20 200 (Ю) 5{10}  10 км  снежные зёрна  10/10 270 м 
[St]
-1.3 -3.6 84 -5  1025.7  -1.5  767  311           
00 01.12.20 180 (Ю) 50000 м  в посл. час морось{снег}  10/10 300 м 
[St]
-1.2 -3.2 86 -4  1023.3  -2.4  766  310           
03 01.12.20 200 (Ю) 6-10{10}  10 км  слаб. ливневой снег  10/10 300 м кучево-дожд. 
[Cb cap]
-0.2 -1.6 90 -4  1022  -1.3  765  309  -3.2    0.0  равномерный
сухой снег
100% 
06 01.12.20 190 (Ю) 7-11{10}  10 км  слаб. снег{ливн. осадки} [диам. гололёда 0 мм]  10/10 420 м 
[Ns]
+0.5 -1.4 87 -3  1020.7  -1.3  764  307           
09 01.12.20 200 (Ю) 7-11{11}  50000 м  в посл. час ливневой снег  9/8 450 м кучево-дожд., средняя 
[Cb cap|Ac trans]
+0.5 -1.4 87 -3  1020.2  -0.5  763  307           
12 01.12.20 200 (Ю) 6-10{11}  50000 м  {ливн. осадки, снег}  10/10 480 м 
[Sc diur, vesp]
+0.4 -1.8 85 -3  1019.9  -0.3  763  307           
15 01.12.20 200 (Ю) 6-10{11}  20000 м  {ливн. осадки}  9/6 930 м средняя 
[Sc diur, vesp|Ac trans]
+0 -2.3 84 -3  1019.6  -0.3  763  308    +0.7  0.0     
21 01.12.20 210 (ЮЗ) 20000 м    10/10 1020 м 
[Sc]
-6.6 -4 100 -11  1020.7  0.8  764  316           
00 02.12.20 210 (ЮЗ) 10 км  слаб. ливневой снег  10/10 660 м кучево-дожд. 
[Cb cap]
-0.5 -2.9 84 -3  1020.9  0.2  764  309           
03 02.12.20 180 (Ю) 10 км  слаб. ливневой снег  9/8 300 м кучево-дожд., средняя 
[Cb cap|Ac trans]
-1.3 -2.1 94 -4  1020.9  764  310  -1.8    0.7  равномерный
сухой снег
100% 
06 02.12.20 210 (ЮЗ) 50000 м  в посл. час ливневой снег  9/6 420 м кучево-дожд., средняя 
[Cb cap|Ac trans]
-0.9 -1.9 93 -3  1021.5  0.6  764  309           
Время (UTC), дата Ветер
(°,м/с) 
Видим.   Явления Облачность Т
(°С)
Тd
(°С)
f(%) Тe
(°С)
Pmin
(гПа)
dP
(гПа)
Po
(мм)
O2
(г/м3)
Тmin Tmax R s Состояние
почвы

Для получения пояснительной информации подведите курсор к названию столбца.

ПОГОДА в Мезени - архив

Всё, что Вы хотите узнать о погоде в Мезени - удобно и подробно!

Выберите нужную дату (начиная с 1 января 2019* года) и нажмите кнопку "Найти".
Будут отображены архивные сводки погоды по пункту Мезень, начиная с указанной даты.


Отображать данные в формате CSV (для использования в таблицах Excel)


Внимание! Наш архив погоды предназначен исключительно для личного некоммерческого использования в познавательных целях. Если Вам необходимы официальные справки о состоянии погоды (для производственных, юридических, коммерческих и т.п. целей), обращайтесь в органы Росгидромета.

*Примечание: данная дата относится к архиву по метеостанциям СССР (Россия, СНГ, Балтия).
Архив по метеостанциям Зарубежной Европы и Азии (кроме Китая) хранится 10 дней, по другим регионам земного шара (Китай, Африка, Америка, Австралия, Океания) - 1 день.

Мезень - район местоположения метеостанции


Название, широта, долгота, высота метеостанции:
Мезень 65.9°ш. 44.2°д. 19 м над ур. моря [Российская Федерация]

Дополнительная информация

В oтличие oт бoльшинства пoгoдных сайтoв мы публикуем пoдрoбную метеoинфoрмацию в детальнoм прoфессиoнальнoм фoрмате.

Характеристики температуры и влажнoсти вoздуха измеряются на высoте 2 м в тени вдали oт зданий и деревьев.
Скoрoсть ветра измеряется на высoте 10 м (на урoвне рoста челoвека скoрoсть ветра ниже в 1.5-2 раза). Если метеoстанция нахoдится в гoрoде или в лесу, тo скoрoсть ветра занижена на 2-4 м/с пo сравнению с oткрытым местoм. Скoрoсть ветра над акватoриями крупных рек и oзёр, а также на вершинах хoлмoв на 2-5 м/с выше, чем в oбычных услoвиях.
Атмoсфернoе давление в разных тoчках местнoсти мoжет значительнo oтличаться oт давления на метеoстанции, в зависимoсти oт услoвий рельефа (при пoдъёме на 10 м давление пoнижается примернo на 1 мм рт.ст.).